This is the latest recevied weather packets stored in our database for station/object KE5OYL. If no packets are shown the sender has not sent any weather packets the latest 10 day(s).
| Time | Temp. | Humidity | Pressure | Rain* | Wind** | Luminosity | Snow |
|---|---|---|---|---|---|---|---|
| 1777896372 | 16.67° C | 74% | 1014.1 hPa | 0 mm | - | 31 W/m² | - |
| 1777896070 | 16.67° C | 74% | 1014 hPa | 0 mm | - | 26 W/m² | - |
| 1777895768 | 16.67° C | 74% | 1014.1 hPa | 0 mm | - | 19 W/m² | - |
| 1777895465 | 16.67° C | 75% | 1014.1 hPa | 0 mm | - | 14 W/m² | - |
| 1777895163 | 16.67° C | 75% | 1013.9 hPa | 0 mm | - | 9 W/m² | - |
| 1777894859 | 16.67° C | 75% | 1014 hPa | 0 mm | - | 6 W/m² | - |
| 1777894556 | 16.67° C | 75% | 1013.9 hPa | 0 mm | - | 3 W/m² | - |
| 1777894254 | 16.67° C | 75% | 1013.9 hPa | 0 mm | - | 1 W/m² | - |
| 1777893951 | 16.67° C | 74% | 1014 hPa | 0 mm | - | 0 W/m² | - |
| 1777893647 | 16.67° C | 74% | 1013.8 hPa | 0 mm | - | 0 W/m² | - |
| 1777893344 | 16.67° C | 73% | 1013.9 hPa | 0 mm | - | 0 W/m² | - |
| 1777893039 | 16.67° C | 73% | 1013.9 hPa | 0 mm | - | 0 W/m² | - |
| 1777892737 | 16.67° C | 73% | 1013.9 hPa | 0 mm | - | 0 W/m² | - |
| 1777892427 | 17.22° C | 72% | 1013.8 hPa | 0 mm | - | 0 W/m² | - |
| 1777892123 | 17.22° C | 71% | 1013.8 hPa | 0 mm | - | 0 W/m² | - |
| 1777891820 | 17.22° C | 71% | 1014.1 hPa | 0 mm | - | 0 W/m² | - |
| 1777891517 | 17.22° C | 70% | 1013.9 hPa | 0 mm | - | 0 W/m² | - |
| 1777891213 | 17.22° C | 70% | 1013.9 hPa | 0 mm | - | 0 W/m² | - |
| 1777890908 | 17.22° C | 69% | 1014 hPa | 0 mm | - | 0 W/m² | - |
| 1777890603 | 17.78° C | 69% | 1014.1 hPa | 0 mm | - | 0 W/m² | - |
| 1777890298 | 17.22° C | 69% | 1013.8 hPa | 0 mm | - | 0 W/m² | - |
| 1777889995 | 17.22° C | 69% | 1013.9 hPa | 0 mm | - | 0 W/m² | - |
| 1777889693 | 17.22° C | 70% | 1014.2 hPa | 0 mm | - | 0 W/m² | - |
| 1777889390 | 17.22° C | 70% | 1014.1 hPa | 0 mm | - | 0 W/m² | - |
| 1777889088 | 17.22° C | 70% | 1014 hPa | 0 mm | - | 0 W/m² | - |
* Rain latest hour (hover to see other rain measurements)
** Current wind speed in m/s (hover to see current wind gust speed)